DW3733 Weather Reports


time (UTC)temp
F
wind
direction
speed
knots
gust
knots
rain 1hr
in
rain 24hr
in
rain mn
in
humidity
%
barometer
mb
20260906072808 85 213 1.7 2.6 0.00 0.00 0.00 48 1019.7
20260906072308 84 6 0.9 2.6 0.00 0.00 0.00 50 1019.7
20260906071807 83 220 0.9 1.7 0.00 0.00 0.00 50 1019.7
20260906071307 83 170 0.9 5.2 0.00 0.00 0.00 50 1019.7
20260906070806 83 221 1.7 2.6 0.00 0.00 0.00 50 1019.7
20260906070307 83 220 0.9 2.6 0.00 0.00 0.00 48 1019.8
20260906065806 82 225 0.9 0.9 0.00 0.00 0.00 45 1019.6
20260906065306 82 185 0.0 1.7 0.00 0.00 0.00 46 1019.8
20260906064806 82 202 0.9 1.7 0.00 0.00 0.00 46 1019.5
20260906064306 81 180 0.0 0.9 0.00 0.00 0.00 47 1019.6
20260906063307 80 97 0.9 0.9 0.00 0.00 0.00 46 1019.6
20260906062806 80 132 0.9 0.9 0.00 0.00 0.00 51 1019.6
20260906062307 79 135 0.0 0.9 0.00 0.00 0.00 52 1019.6
20260906061806 78 135 0.9 0.9 0.00 0.00 0.00 53 1019.7
20260906061306 78 135 0.9 1.7 0.00 0.00 0.00 54 1019.6
20260906060806 75 90 0.0 0.0 0.00 0.00 0.00 57 1019.6
20260906060306 75 90 0.0 0.0 0.00 0.00 0.00 57 1019.5
20260906055807 75 315 0.0 0.0 0.00 0.00 0.00 59 1019.6
20260906055307 74 90 0.0 0.0 0.00 0.00 0.00 61 1019.7
20260906053306 69 94 0.0 0.0 0.00 0.00 0.00 70 1019.6
20260906052807 68 96 0.0 0.0 0.00 0.00 0.00 70 1019.5
20260906051806 67 90 0.0 0.9 0.00 0.00 0.00 70 1019.5
20260906051306 67 90 0.9 1.7 0.00 0.00 0.00 70 1019.5
20260906050806 67 90 0.9 1.7 0.00 0.00 0.00 70 1019.4
20260906050306 66 126 0.9 1.7 0.00 0.00 0.00 70 1019.5
20260906045807 66 90 0.9 1.7 0.00 0.00 0.00 70 1019.4
20260906045307 66 95 0.0 0.9 0.00 0.00 0.00 70 1019.3
20260906044806 66 90 0.9 2.6 0.00 0.00 0.00 70 1019.4
20260906043806 66 90 0.9 0.9 0.00 0.00 0.00 70 1019.4
20260906043306 66 176 0.9 0.9 0.00 0.00 0.00 70 1019.4
20260906042307 66 90 0.9 0.9 0.00 0.00 0.00 70 1019.4
20260906041807 66 90 0.9 0.9 0.00 0.00 0.00 70 1019.4
20260906041307 66 355 0.0 1.7 0.00 0.00 0.00 69 1019.3
20260906040807 67 135 0.0 0.9 0.00 0.00 0.00 68 1019.3
20260906040307 67 135 0.0 0.9 0.00 0.00 0.00 68 1019.3
20260906035306 67 135 0.9 0.9 0.00 0.00 0.00 68 1019.2
20260906034806 67 90 0.9 0.9 0.00 0.00 0.00 67 1019.2
20260906033807 67 90 0.9 0.9 0.00 0.00 0.00 68 1019.2
20260906033307 67 315 0.0 0.9 0.00 0.00 0.00 68 1019.1
20260906032807 67 135 0.0 0.9 0.00 0.00 0.00 67 1019.2
20260906032306 67 131 0.9 0.9 0.00 0.00 0.00 68 1019.1
20260906031806 67 135 0.0 0.0 0.00 0.00 0.00 68 1019.1
20260906030306 67 141 0.0 2.6 0.00 0.00 0.00 67 1019.1
20260906025307 68 90 0.9 1.7 0.00 0.00 0.00 67 1019.1
20260906024807 68 134 0.9 1.7 0.00 0.00 0.00 68 1019.1
20260906024307 68 135 0.9 0.9 0.00 0.00 0.00 69 1019.1
20260906023307 68 90 0.9 1.7 0.00 0.00 0.00 70 1019.1
20260906022807 68 90 0.9 2.6 0.00 0.00 0.00 70 1019.1
20260906022307 68 90 0.9 1.7 0.00 0.00 0.00 70 1019.2
20260906021806 68 90 0.9 1.7 0.00 0.00 0.00 69 1019.1
20260906021306 68 90 0.9 2.6 0.00 0.00 0.00 68 1019.1
20260906020307 68 90 0.9 1.7 0.00 0.00 0.00 67 1019.1
20260906015806 68 315 0.0 1.7 0.00 0.00 0.00 68 1019.0
20260906015306 68 90 1.7 2.6 0.00 0.00 0.00 68 1019.1
20260906014806 68 193 0.9 0.9 0.00 0.00 0.00 68 1019.1
20260906014306 68 90 0.0 1.7 0.00 0.00 0.00 68 1019.1
20260906013807 68 90 0.9 2.6 0.00 0.00 0.00 68 1019.2
20260906012307 68 90 0.9 0.9 0.00 0.00 0.00 68 1019.1
20260906011806 68 135 0.9 1.7 0.00 0.00 0.00 69 1019.2
20260906011306 68 6 0.9 1.7 0.00 0.00 0.00 69 1019.2
20260906010807 68 270 0.9 1.7 0.00 0.00 0.00 69 1019.2
20260906010307 68 94 0.9 1.7 0.00 0.00 0.00 69 1019.3
20260906005806 69 90 0.9 1.7 0.00 0.00 0.00 68 1019.2
20260906005306 69 315 0.9 1.7 0.00 0.00 0.00 68 1019.3
20260906004806 69 270 0.9 1.7 0.00 0.00 0.00 67 1019.3
20260906004306 69 90 0.9 1.7 0.00 0.00 0.00 67 1019.3
20260906003806 69 90 0.9 0.9 0.00 0.00 0.00 66 1019.3
20260906003306 69 101 0.9 0.9 0.00 0.00 0.00 66 1019.2
20260906002806 70 93 0.9 2.6 0.00 0.00 0.00 65 1019.3
20260906002307 71 90 1.7 2.6 0.00 0.00 0.00 64 1019.2
20260906001807 71 3 0.9 1.7 0.00 0.00 0.00 61 1019.2
20260906001306 71 0 0.0 1.7 0.00 0.00 0.00 61 1019.3
20260906000806 71 231 0.0 0.0 0.00 0.00 0.00 61 1019.2
20260905235807 72 5 0.0 1.7 0.00 0.00 0.00 61 1019.3
20260905235307 72 95 0.0 0.9 0.00 0.00 0.00 62 1019.4
20260905234807 71 320 0.9 0.9 0.00 0.00 0.00 62 1019.4
20260905234307 72 0 1.7 2.6 0.00 0.00 0.00 61 1019.4
20260905233806 72 328 0.9 2.6 0.00 0.00 0.00 61 1019.4
20260905233306 73 90 0.9 1.7 0.00 0.00 0.00 61 1019.5
20260905232806 72 220 0.0 1.7 0.00 0.00 0.00 60 1019.4
20260905232306 73 90 0.9 1.7 0.00 0.00 0.00 59 1019.4
20260905231806 74 90 0.0 0.0 0.00 0.00 0.00 59 1019.3
20260905231306 74 315 0.0 2.6 0.00 0.00 0.00 58 1019.4
20260905230806 75 90 0.9 2.6 0.00 0.00 0.00 56 1019.4
20260905230306 77 90 0.0 0.9 0.00 0.00 0.00 55 1019.4
20260905225817 77 225 1.7 2.6 0.00 0.00 0.00 55 1019.4
20260905225318 77 204 0.9 1.7 0.00 0.00 0.00 55 1019.5
20260905224317 77 225 1.7 2.6 0.00 0.00 0.00 56 1019.5
20260905222817 77 224 0.9 2.6 0.00 0.00 0.00 58 1019.4
20260905222318 77 6 0.0 2.6 0.00 0.00 0.00 59 1019.6
20260905221818 77 141 0.0 2.6 0.00 0.00 0.00 60 1019.5
20260905220826 77 181 1.7 2.6 0.00 0.00 0.00 60 1019.5
20260905220318 78 225 0.0 1.7 0.00 0.00 0.00 60 1019.5
20260905215817 78 223 0.9 1.7 0.00 0.00 0.00 60 1019.4
20260905215317 78 180 0.9 4.3 0.00 0.00 0.00 61 1019.3
20260905214818 78 184 1.7 2.6 0.00 0.00 0.00 61 1019.4
20260905214318 78 137 2.6 2.6 0.00 0.00 0.00 61 1019.5
20260905213819 78 180 0.9 4.3 0.00 0.00 0.00 61 1019.6
20260905213318 78 227 0.9 1.7 0.00 0.00 0.00 62 1019.4
20260905212818 78 180 0.9 1.7 0.00 0.00 0.00 62 1019.6
20260905212318 78 221 0.9 0.9 0.00 0.00 0.00 62 1019.5
20260905211318 78 216 0.9 1.7 0.00 0.00 0.00 61 1019.5
20260905210818 78 156 0.9 1.7 0.00 0.00 0.00 61 1019.4
20260905210317 79 182 0.0 1.7 0.00 0.00 0.00 61 1019.5
20260905205817 79 218 0.9 1.7 0.00 0.00 0.00 61 1019.4
20260905204817 78 225 0.9 0.9 0.00 0.00 0.00 61 1019.3
20260905204317 78 180 0.9 0.9 0.00 0.00 0.00 61 1019.4
20260905202817 78 219 0.9 0.9 0.00 0.00 0.00 64 1019.2
20260905202318 78 225 0.9 0.9 0.00 0.00 0.00 63 1019.3
20260905201818 78 184 0.0 0.9 0.00 0.00 0.00 63 1019.4
20260905200818 78 177 0.9 0.9 0.00 0.00 0.00 64 1019.4
20260905200318 79 90 0.0 0.9 0.00 0.00 0.00 64 1019.4
20260905195817 79 90 0.0 1.7 0.00 0.00 0.00 65 1019.4
20260905195318 79 142 0.9 1.7 0.00 0.00 0.00 65 1019.4
20260905194317 80 177 0.9 2.6 0.00 0.00 0.00 64 1019.5
20260905193817 80 261 0.9 1.7 0.00 0.00 0.00 63 1019.4
20260905193317 79 265 0.9 1.7 0.00 0.00 0.00 64 1019.4
20260905192818 79 185 0.0 2.6 0.00 0.00 0.00 64 1019.5
20260905192317 79 136 1.7 2.6 0.00 0.00 0.00 65 1019.3
20260905191818 79 8 0.0 1.7 0.00 0.00 0.00 63 1019.5
20260905191318 80 8 0.9 1.7 0.00 0.00 0.00 59 1019.5
20260905190818 81 135 0.9 1.7 0.00 0.00 0.00 60 1019.4
20260905190317 82 135 0.9 1.7 0.00 0.00 0.00 60 1019.4
20260905185818 82 225 1.7 2.6 0.00 0.00 0.00 60 1019.2
20260905185318 82 205 2.6 2.6 0.00 0.00 0.00 59 1019.2
20260905184818 82 229 0.9 2.6 0.00 0.00 0.00 57 1019.0
20260905184318 82 225 0.0 0.9 0.00 0.00 0.00 56 1019.0
20260905183817 82 220 0.9 0.9 0.00 0.00 0.00 55 1018.9
20260905183318 82 225 0.0 0.9 0.00 0.00 0.00 55 1018.9
20260905182818 82 225 0.9 0.9 0.00 0.00 0.00 54 1018.8
20260905182318 82 135 0.0 1.7 0.00 0.00 0.00 53 1018.8
20260905181818 83 94 0.0 1.7 0.00 0.00 0.00 51 1018.7
20260905181317 83 141 0.0 0.9 0.00 0.00 0.00 50 1018.8
20260905180819 84 95 0.0 1.7 0.00 0.00 0.00 48 1018.7
20260905180317 84 180 0.9 1.7 0.00 0.00 0.00 46 1018.6
20260905175818 84 229 0.9 2.6 0.00 0.00 0.00 46 1018.5
20260905175317 85 225 0.9 2.6 0.00 0.00 0.00 46 1018.5
20260905174817 85 180 1.7 2.6 0.00 0.00 0.00 46 1018.2
20260905174318 85 225 0.9 2.6 0.00 0.00 0.00 47 1018.1
20260905173818 85 222 1.7 2.6 0.00 0.02 0.00 47 1018.1
20260905173318 85 225 1.7 5.2 0.00 0.02 0.00 47 1018.0
20260905172317 86 222 2.6 4.3 0.00 0.02 0.00 46 1018.0
20260905171818 87 225 1.7 5.2 0.00 0.02 0.00 46 1018.0
20260905171317 87 175 1.7 5.2 0.00 0.02 0.00 45 1017.9
20260905170817 88 204 1.7 2.6 0.00 0.02 0.00 44 1017.9
20260905165817 89 143 1.7 2.6 0.00 0.02 0.00 43 1017.7
20260905164818 89 183 2.6 5.2 0.00 0.02 0.00 40 1017.7
20260905164317 89 180 2.6 4.3 0.00 0.02 0.00 37 1017.8
20260905163817 90 180 2.6 5.2 0.00 0.02 0.00 37 1017.7
20260905163317 90 225 1.7 4.3 0.00 0.02 0.00 37 1017.7
20260905162818 90 185 1.7 5.2 0.00 0.02 0.00 36 1017.7
20260905162318 90 180 3.5 5.2 0.00 0.02 0.00 35 1017.6
20260905161817 90 184 2.6 5.2 0.00 0.02 0.00 35 1017.7
20260905161318 91 184 2.6 5.2 0.00 0.02 0.00 35 1017.6
20260905160817 91 184 2.6 5.2 0.00 0.02 0.00 36 1017.5
20260905160317 91 353 3.5 5.2 0.00 0.02 0.00 35 1017.6
20260905155817 92 180 2.6 5.2 0.00 0.02 0.00 34 1017.5
20260905155318 92 175 2.6 6.1 0.00 0.02 0.00 34 1017.5
20260905154818 92 225 2.6 5.2 0.00 0.02 0.00 32 1017.5
20260905154318 92 270 1.7 2.6 0.00 0.02 0.00 31 1017.4
20260905153819 92 180 2.6 2.6 0.00 0.02 0.00 30 1017.6
20260905153317 92 225 0.9 2.6 0.00 0.02 0.00 30 1017.5
20260905152817 92 218 1.7 2.6 0.00 0.02 0.00 30 1017.6
20260905152317 92 225 1.7 5.2 0.00 0.02 0.00 30 1017.5
20260905151817 93 199 2.6 4.3 0.00 0.02 0.00 30 1017.5
20260905150817 93 218 2.6 4.3 0.00 0.02 0.00 32 1017.5
20260905145818 93 223 2.6 5.2 0.00 0.02 0.00 33 1017.6
20260905145318 93 355 2.6 5.2 0.00 0.02 0.00 34 1017.6
20260905144818 94 312 2.6 7.0 0.00 0.02 0.00 33 1017.5
20260905144318 94 180 4.3 7.8 0.00 0.02 0.00 33 1017.6
20260905143818 95 97 5.2 7.8 0.00 0.02 0.00 33 1017.5
20260905142818 95 306 2.6 7.0 0.00 0.02 0.00 31 1017.5
20260905142317 95 233 4.3 7.0 0.00 0.02 0.00 31 1017.4
20260905141817 96 184 2.6 7.8 0.00 0.02 0.00 31 1017.4
20260905141318 96 139 1.7 8.7 0.00 0.02 0.00 31 1017.4
20260905140817 96 183 3.5 7.0 0.00 0.02 0.00 30 1017.3
20260905140318 96 315 2.6 6.1 0.00 0.02 0.00 30 1017.3
20260905135818 97 355 4.3 6.1 0.00 0.02 0.00 29 1017.2
20260905135317 97 270 2.6 5.2 0.00 0.02 0.00 30 1017.3
20260905134817 97 86 3.5 5.2 0.00 0.02 0.00 29 1017.3
20260905134317 97 354 3.5 5.2 0.00 0.02 0.00 28 1017.3
20260905133317 98 180 0.9 2.6 0.00 0.02 0.00 20 1017.4
20260905132317 97 0 0.9 1.7 0.00 0.02 0.00 21 1017.4
20260905131818 97 84 0.9 2.6 0.00 0.02 0.00 20 1017.4
20260905131318 97 355 2.6 5.2 0.00 0.02 0.00 20 1017.4
20260905130817 97 358 0.9 2.6 0.00 0.02 0.00 20 1017.5
20260905130318 97 320 2.6 5.2 0.00 0.02 0.00 12 1017.5
20260905125818 98 84 0.9 2.6 0.00 0.02 0.00 12 1017.6
20260905125318 98 315 0.9 0.9 0.00 0.02 0.00 11 1017.7
20260905124818 97 135 0.9 2.6 0.00 0.02 0.00 12 1017.6
20260905123817 97 135 2.6 5.2 0.00 0.02 0.00 12 1017.8
20260905123318 97 318 3.5 5.2 0.00 0.02 0.00 12 1017.6
20260905122817 97 315 1.7 2.6 0.00 0.02 0.00 13 1017.7
20260905122317 97 358 0.9 2.6 0.00 0.02 0.00 13 1017.9
20260905121817 97 0 1.7 5.2 0.00 0.02 0.00 12 1017.9
20260905121317 97 0 2.6 4.3 0.00 0.02 0.00 12 1018.0
20260905120817 87 228 2.6 5.2 0.00 0.02 0.00 13 1019.5
20260905115817 86 225 2.6 4.3 0.00 0.02 0.00 43 1019.7
20260905115317 87 230 2.6 4.3 0.00 0.02 0.00 12 1019.5
20260905114818 97 351 0.9 2.6 0.00 0.02 0.00 24 1018.3
20260905113817 97 283 1.7 2.6 0.00 0.02 0.00 11 1018.3
20260905113317 97 223 0.9 1.7 0.00 0.02 0.00 20 1018.3
20260905112817 96 180 0.9 2.6 0.00 0.02 0.00 21 1018.3
20260905112318 96 227 1.7 2.6 0.00 0.02 0.00 20 1018.4
20260905111817 95 186 0.9 2.6 0.00 0.02 0.00 21 1019.6
20260905111317 95 331 0.9 2.6 0.00 0.02 0.00 21 1018.4
20260905105817 94 357 2.6 5.2 0.00 0.02 0.00 22 1018.5
20260905105318 94 234 1.7 4.3 0.00 0.02 0.00 23 1018.5
20260905104817 93 356 1.7 4.3 0.00 0.02 0.00 23 1018.6
20260905104317 93 315 2.6 5.2 0.00 0.02 0.00 23 1018.6
20260905103317 94 319 0.9 5.2 0.00 0.02 0.00 25 1018.6
20260905102818 93 90 2.6 5.2 0.00 0.02 0.00 25 1018.6
20260905102320 94 357 3.5 5.2 0.00 0.02 0.00 24 1018.7
20260905100817 92 135 0.9 0.9 0.00 0.02 0.00 28 1018.9
20260905100317 92 135 0.9 2.6 0.00 0.02 0.00 28 1018.9
20260905093817 91 359 1.7 4.3 0.00 0.02 0.00 26 1019.2
20260905093317 91 296 2.6 4.3 0.00 0.02 0.00 30 1019.3
20260905092818 90 5 0.9 2.6 0.00 0.02 0.00 32 1019.3
20260905092318 90 180 0.9 1.7 0.00 0.02 0.00 33 1019.4
20260905091818 89 107 0.9 2.6 0.00 0.02 0.00 35 1019.9
20260905091318 81 228 1.7 2.6 0.00 0.02 0.00 47 1019.4
20260905090817 89 270 0.9 0.9 0.00 0.02 0.00 34 1019.5
20260905090317 89 270 0.9 1.7 0.00 0.02 0.00 34 1019.5
20260905085817 89 0 0.9 1.7 0.00 0.02 0.00 33 1019.6
20260905085317 89 92 0.9 1.7 0.00 0.02 0.00 40 1019.6
20260905084817 89 315 0.9 2.6 0.00 0.02 0.00 40 1019.7
20260905083817 87 225 0.9 2.6 0.00 0.02 0.00 40 1019.8
20260905083317 87 191 1.7 4.3 0.00 0.02 0.00 40 1019.8
20260905082818 87 264 0.9 2.6 0.00 0.02 0.00 41 1019.9
20260905082317 87 225 1.7 4.3 0.00 0.02 0.00 42 1019.8
20260905081817 86 225 1.7 4.3 0.00 0.02 0.00 43 1019.7
20260905081317 86 225 2.6 4.3 0.00 0.02 0.00 44 1019.7
20260905080817 86 270 1.7 2.6 0.00 0.02 0.00 45 1019.7
20260905080317 84 225 0.0 1.7 0.00 0.02 0.00 45 1019.7
20260905075817 84 189 0.9 2.6 0.00 0.02 0.00 45 1019.7
20260905075317 83 225 1.7 2.6 0.00 0.02 0.00 44 1019.6
20260905074817 83 184 0.9 0.9 0.00 0.02 0.00 45 1019.7
20260905074317 82 315 0.9 2.6 0.00 0.02 0.00 45 1019.7
20260905073817 82 185 0.9 2.6 0.00 0.02 0.00 46 1019.8